TimeEDT,TemperatureF,Dew PointF,Humidity,Sea Level PressureIn,VisibilityMPH,Wind Direction,Wind SpeedMPH,Gust SpeedMPH,PrecipitationIn,Events,Conditions,WindDirDegrees,DateUTC
12:53 AM,73.0,66.0,79,30.09,10.0,Calm,Calm,-,N/A,,Clear,0,2013-06-23 04:53:00
1:53 AM,73.0,66.0,79,30.06,10.0,Calm,Calm,-,N/A,,Clear,0,2013-06-23 05:53:00
2:53 AM,70.0,64.9,84,30.06,10.0,Calm,Calm,-,N/A,,Clear,0,2013-06-23 06:53:00
3:53 AM,71.1,66.0,84,30.06,9.0,Calm,Calm,-,N/A,,Clear,0,2013-06-23 07:53:00
4:53 AM,69.1,66.0,90,30.09,8.0,Calm,Calm,-,N/A,,Clear,0,2013-06-23 08:53:00
5:53 AM,70.0,66.0,87,30.10,9.0,Calm,Calm,-,N/A,,Clear,0,2013-06-23 09:53:00
6:53 AM,70.0,66.9,90,30.12,7.0,Calm,Calm,-,N/A,,Clear,0,2013-06-23 10:53:00
7:53 AM,72.0,66.9,84,30.13,9.0,Calm,Calm,-,N/A,,Clear,0,2013-06-23 11:53:00
8:53 AM,75.9,68.0,76,30.14,10.0,Variable,3.5,-,N/A,,Partly Cloudy,0,2013-06-23 12:53:00
9:53 AM,80.1,68.0,67,30.14,10.0,Variable,4.6,-,N/A,,Clear,0,2013-06-23 13:53:00
10:53 AM,82.0,69.1,65,30.13,10.0,SSE,6.9,-,N/A,,Clear,160,2013-06-23 14:53:00
11:53 AM,84.9,68.0,57,30.12,10.0,South,8.1,-,N/A,,Clear,180,2013-06-23 15:53:00
12:41 PM,84.2,68.0,58,30.13,10.0,South,8.1,-,N/A,Thunderstorm,Thunderstorm,190,2013-06-23 16:41:00
12:53 PM,84.0,66.0,55,30.11,10.0,South,8.1,16.1,N/A,Thunderstorm,Mostly Cloudy,190,2013-06-23 16:53:00
1:27 PM,82.4,64.4,54,30.13,10.0,WSW,10.4,-,N/A,,Mostly Cloudy,240,2013-06-23 17:27:00
1:40 PM,80.6,64.4,58,30.13,10.0,WSW,10.4,18.4,N/A,Thunderstorm,Thunderstorm,250,2013-06-23 17:40:00
1:53 PM,81.0,66.0,60,30.11,10.0,WSW,9.2,-,N/A,Thunderstorm,Thunderstorm,240,2013-06-23 17:53:00
2:34 PM,80.6,66.2,61,30.13,10.0,Calm,Calm,-,0.00,Rain,Light Rain,0,2013-06-23 18:34:00
2:53 PM,82.0,66.9,60,30.11,10.0,ENE,6.9,-,0.00,,Clear,60,2013-06-23 18:53:00
3:53 PM,84.9,66.9,55,30.08,10.0,ENE,4.6,-,N/A,,Partly Cloudy,60,2013-06-23 19:53:00
4:02 PM,84.2,66.2,55,30.10,10.0,South,4.6,-,N/A,Thunderstorm,Thunderstorm,190,2013-06-23 20:02:00
4:20 PM,82.4,66.2,58,30.09,10.0,ESE,8.1,-,N/A,,Mostly Cloudy,110,2013-06-23 20:20:00
4:53 PM,82.0,66.0,58,30.08,10.0,Calm,Calm,-,N/A,,Partly Cloudy,0,2013-06-23 20:53:00
5:27 PM,84.2,64.4,51,30.09,10.0,West,4.6,-,N/A,Thunderstorm,Clear,260,2013-06-23 21:27:00
5:53 PM,77.0,66.9,71,30.08,10.0,NNW,9.2,-,N/A,Thunderstorm,Clear,330,2013-06-23 21:53:00
6:06 PM,78.8,66.2,65,30.08,10.0,NW,5.8,-,N/A,,Clear,320,2013-06-23 22:06:00
6:53 PM,81.0,68.0,65,30.06,10.0,NNW,5.8,-,N/A,,Clear,340,2013-06-23 22:53:00
7:53 PM,80.1,66.9,64,30.06,10.0,North,3.5,-,N/A,,Clear,360,2013-06-23 23:53:00
8:53 PM,79.0,66.9,66,30.07,10.0,Calm,Calm,-,N/A,,Clear,0,2013-06-24 00:53:00
9:53 PM,77.0,66.9,71,30.09,10.0,Calm,Calm,-,N/A,,Clear,0,2013-06-24 01:53:00
10:53 PM,75.9,68.0,76,30.10,10.0,Calm,Calm,-,N/A,,Clear,0,2013-06-24 02:53:00
11:53 PM,73.9,68.0,82,30.10,9.0,Calm,Calm,-,N/A,,Clear,0,2013-06-24 03:53:00